Content
SEND FEEDBACK

Daily
Averages
Monthly
Summary
Belgium

OOSTENDE, BELGIUM


Home > Europe > Belgium
Elevation: 16 feet     Latitude: 51 12N     Longitude: 002 52E

WEATHER
 
SELECT A DAY
Number of Records: 316,344;   Date Range: 7/1/96 - 10/24/14
 
SHARE

PRINT THIS DATA

[ ← Previous Day ]
WEATHER ALMANAC - SEPTEMBER 2, 2014
[ Next Day → ]
[ °C ]   °F
Weather ElementAverageHighLow
Temperature62.5 °F67 °F (7:00 pm)59 °F (4:50 am)
Dewpoint57 °F60.8 °F (12:20 am)55 °F (11:00 am)
Humidity80.4 %88 % (12:20 am)67 % (12:00 pm)
Barometer30.19 in30.24 in (11:00 pm)30.12 in (1:00 am)
Wind Speed6.5 mph11.5 mph (6:20 pm)
Weather ElementAverage
Visibility3.4 mi
Wind DirectionE (87.2 °)

Weather ElementTotal
Precipitation---
Heating Degree Days2 (Base 65)
Growing Degree Days13 (Base 50)
Averaged from 71 records on September 2, 2014
WEATHER CONDITIONS BREAKOUT
WIND DIRECTION BREAKOUT
WEATHER BY HOUR - SEPTEMBER 2, 2014
[ °C ]   °F
Local TimeTemperatureDewpointHumidityBarometerVisibilityWind DirectionWind SpeedGust SpeedPrecipitationEventsConditions
12:00 AM60.0 °F56.0 °F81 %30.16 in4.0 miSouth (180°)4.5 mphRainLight Rain
12:20 AM60.8 °F55.4 °F82 %30.15 in3.1 miSSE (160°)4.6 mphLight Drizzle
12:50 AM59.0 °F55.4 °F88 %30.15 in2.5 miSSE (160°)5.8 mphLight Drizzle
1:00 AM60.0 °F56.0 °F81 %30.16 in2.0 miSSE (160°)6.7 mphRainLight Drizzle
1:20 AM59.0 °F55.4 °F88 %30.15 in2.2 miSouth (170°)4.6 mphLight Drizzle
1:50 AM60.8 °F55.4 °F82 %30.15 in1.9 miSouth (170°)5.8 mphLight Drizzle
2:00 AM60.0 °F56.0 °F82 %30.15 in2.0 miSouth (170°)4.5 mphRainLight Drizzle
2:20 AM60.8 °F55.4 °F82 %30.12 in1.9 miSouth (180°)4.6 mphLight Drizzle
2:50 AM60.8 °F55.4 °F82 %30.15 in1.9 miSSE (160°)4.6 mphLight Drizzle
3:00 AM60.0 °F56.0 °F82 %30.16 in2.0 miSSE (160°)4.5 mphRainLight Drizzle
3:20 AM60.8 °F57.2 °F88 %30.12 in1.6 miSSE (160°)3.5 mphLight Drizzle
3:50 AM60.8 °F57.2 °F88 %30.12 in1.6 miSSE (150°)3.5 mphLight Drizzle
4:00 AM60.0 °F56.0 °F84 %30.15 in2.0 miSSE (150°)2.2 mphRainLight Drizzle
4:20 AM60.8 °F57.2 °F88 %30.12 in1.6 miSE (140°)3.5 mphMostly Cloudy
4:50 AM60.8 °F57.2 °F88 %30.12 in1.6 miSSE (150°)3.5 mphMostly Cloudy
5:00 AM60.0 °F56.0 °F83 %30.15 in2.0 miSSE (150°)4.5 mphRainLight Drizzle
5:20 AM60.8 °F57.2 °F88 %30.12 in1.6 miSE (140°)3.5 mphMostly Cloudy
5:50 AM60.8 °F57.2 °F88 %30.12 in1.4 miESE (110°)2.3 mphMostly Cloudy
6:00 AM60.0 °F56.0 °F84 %30.15 in1.0 miESE (110°)2.2 mphMist
6:20 AM60.8 °F57.2 °F88 %30.12 in1.2 miESE (110°)3.5 mphMostly Cloudy
6:50 AM60.8 °F57.2 °F88 %30.15 in1.1 miSE (130°)3.5 mphMostly Cloudy
7:00 AM60.0 °F56.0 °F84 %30.16 in1.0 miSE (130°)2.2 mphMist
7:20 AM60.8 °F57.2 °F88 %30.15 in1.1 miSE (140°)4.6 mphMostly Cloudy
7:50 AM60.8 °F57.2 °F88 %30.15 in1.1 miESE (120°)3.5 mphMostly Cloudy
8:00 AM61.0 °F57.0 °F81 %30.17 in1.0 miESE (120°)2.2 mphMist
8:20 AM60.8 °F57.2 °F88 %30.15 in1.2 miESE (120°)2.3 mphMostly Cloudy
8:50 AM60.8 °F57.2 °F88 %30.18 in1.6 miEast (80°)4.6 mphMostly Cloudy
9:00 AM61.0 °F57.0 °F82 %30.18 in2.0 miEast (80°)4.5 mphMist
9:20 AM60.8 °F57.2 °F88 %30.18 in1.2 miEast (80°)5.8 mphMostly Cloudy
9:50 AM60.8 °F57.2 °F88 %30.18 in1.6 miENE (70°)8.1 mphMostly Cloudy
10:00 AM61.0 °F57.0 °F82 %30.20 in2.0 miENE (70°)6.7 mphRainLight Rain
10:20 AM60.8 °F57.2 °F88 %30.18 in1.9 miENE (70°)8.1 mphMostly Cloudy
10:50 AM60.8 °F57.2 °F88 %30.21 in2.5 miEast (80°)8.1 mphMostly Cloudy
11:00 AM61.0 °F57.0 °F82 %30.22 in2.0 miEast (80°)8.9 mphMist
11:20 AM62.6 °F57.2 °F82 %30.21 in3.1 miEast (90°)5.8 mphMostly Cloudy
11:50 AM62.6 °F57.2 °F82 %30.21 in3.1 miESE (120°)4.6 mphMostly Cloudy
12:00 PM63.0 °F57.0 °F76 %30.22 in3.0 miESE (120°)4.5 mphRainLight Rain
12:20 PM64.4 °F57.2 °F77 %30.21 in3.7 miESE (110°)3.5 mphMostly Cloudy
12:50 PM66.2 °F57.2 °F73 %30.21 in4.3 miEast (100°)4.6 mphMostly Cloudy
1:00 PM66.0 °F58.0 °F68 %30.22 in4.0 miEast (100°)4.5 mphMostly Cloudy
1:20 PM66.2 °F59.0 °F78 %30.21 in4.3 miEast (100°)4.6 mphMostly Cloudy
1:50 PM66.2 °F59.0 °F78 %30.21 in4.3 miNE (50°)6.9 mphMostly Cloudy
2:00 PM66.0 °F59.0 °F73 %30.22 in4.0 miNE (50°)6.7 mphPartly Cloudy
2:20 PM66.2 °F59.0 °F78 %30.21 in5.0 miNNE (20°)8.1 mphMostly Cloudy
2:50 PM66.2 °F60.8 °F83 %30.21 in5.0 miNorth (10°)9.2 mphMostly Cloudy
3:00 PM66.0 °F60.0 °F75 %30.22 in5.0 miNorth (10°)8.9 mphMostly Cloudy
3:20 PM66.2 °F59.0 °F78 %30.21 in5.6 miNNE (30°)9.2 mphMostly Cloudy
3:50 PM66.2 °F59.0 °F78 %30.21 in6.2 miNNE (30°)9.2 mphMostly Cloudy
4:00 PM67.0 °F59.0 °F67 %30.22 in6.0 miNNE (30°)8.9 mphMostly Cloudy
4:20 PM66.2 °F57.2 °F73 %30.21 in6.2 miNNE (30°)11.5 mphMostly Cloudy
4:50 PM66.2 °F59.0 °F78 %30.21 in6.2 miNorth (10°)10.4 mphMostly Cloudy
5:00 PM66.0 °F58.0 °F70 %30.21 in7.0 miNorth (10°)8.9 mphMostly Cloudy
5:20 PM66.2 °F57.2 °F73 %30.21 in6.2 miNorth (10°)10.4 mphMostly Cloudy
5:50 PM64.4 °F57.2 °F77 %30.21 in6.2 miNorth (10°)11.5 mphMostly Cloudy
6:00 PM65.0 °F58.0 °F71 %30.22 in7.0 miNorth (10°)11.2 mphMostly Cloudy
6:20 PM64.4 °F57.2 °F77 %30.21 in5.6 miNorth (10°)10.4 mphScattered Clouds
6:50 PM66.2 °F57.2 °F73 %30.21 in5.0 miNNE (30°)11.5 mphPartly Cloudy
7:00 PM65.0 °F58.0 °F71 %30.22 in5.0 miNNE (30°)11.2 mphScattered Clouds
7:20 PM64.4 °F57.2 °F77 %30.21 inNE (40°)10.4 mphClear
7:50 PM64.4 °F57.2 °F77 %30.21 inNE (40°)10.4 mphClear
8:00 PM64.0 °F56.0 °F69 %30.22 in6.0 miNE (40°)11.2 mph
8:20 PM64.4 °F55.4 °F73 %30.21 inNE (50°)9.2 mphClear
8:50 PM62.6 °F55.4 °F77 %30.21 inNE (50°)9.2 mphClear
9:00 PM63.0 °F55.0 °F69 %30.22 in6.0 miNE (50°)8.9 mph
9:20 PM62.6 °F55.4 °F77 %30.21 inNE (50°)8.1 mphClear
9:50 PM60.8 °F55.4 °F82 %30.21 inNE (50°)8.1 mphClear
10:00 PM62.0 °F56.0 °F75 %30.23 in6.0 miNE (50°)6.7 mph
10:50 PM60.8 °F55.4 °F82 %30.21 inENE (60°)6.9 mphClear
11:00 PM61.0 °F56.0 °F77 %30.24 in6.0 miENE (60°)6.7 mph
11:20 PM60.8 °F55.4 °F82 %30.21 in5.6 miENE (60°)6.9 mph
11:50 PM60.8 °F55.4 °F82 %30.21 in5.6 miENE (60°)5.8 mph
Hourly data recorded from EBOS, located miles away from Oostende, Belgium







STORIES FROM OUR PARTNERS